Flag for Argentina Weather past 2 weeks in Bahía Blanca, Buenos Aires, Argentina

Now
54 °F

Clear.


Feels Like: 54 °F
Forecast: 65 / 81 °F
Wind: No wind

Location: Mar Del Plata Aerodrome

Current Time: Mar 1, 2015 at 6:05:17 AM

Latest Report: Mar 1, 2015 at 5:00 AM


Visibility: 10 mi

Pressure: 30.01 "Hg

Humidity: 88%

Dew point: 50 °F

Location of Bahía BlancaLocation

Historic Weather in Bahía Blanca — Graph

°F

Bahía Blanca temperature yesterday

Maximum temperature yesterday: 79 °F (at 4:00 PM)
Minimum temperature yesterday: 43 °F (at 5:00 AM)
Average temperature yesterday: 61 °F

Past Weeks' High & Low Weather Summary

 TemperatureHumidityPressure
High91 °F (Feb 23, 3:00 PM)100% (Feb 23, 5:00 AM)30.21 "Hg (Feb 23, 5:00 AM)
Low43 °F (Feb 14, 5:00 AM)30% (Feb 28, 4:00 PM)29.65 "Hg (Feb 18, 4:00 PM)
Average67 °F71%30.01 "Hg
* Reported Feb 14 5:00 AM — Mar 1 5:00 AM, Bahía Blanca, Weather by CustomWeather, © 2015

Note: Actual official high and low records may vary slightly from our data, if they occured in-between our weather recording intervals... More about our weather records

Advertising

Bahía Blanca weather history for previous 24 hours

 ConditionsComfort  
Time TempWeatherWind HumidityBarometerVisibility
5:00 AM
Sun, Mar 1
54 °FClear.No wind88%30.01 "Hg10 mi
4:00 AM55 °FClear.3 mph88%30.01 "Hg10 mi
3:00 AM57 °FClear.5 mph77%30.01 "Hg10 mi
2:00 AM59 °FClear.5 mph77%30.04 "Hg10 mi
1:00 AM59 °FClear.3 mph72%30.04 "Hg10 mi
12:00 AM61 °FClear.5 mph68%30.04 "Hg10 mi
11:00 PM
Sat, Feb 28
63 °FClear.7 mph59%30.04 "Hg10 mi
10:00 PM64 °FClear.3 mph60%30.04 "Hg10 mi
9:00 PM68 °FClear.5 mph49%30.04 "Hg10 mi
8:00 PM68 °FClear.6 mph49%30.04 "Hg10 mi
7:00 PM75 °FClear.7 mph36%30.01 "Hg10 mi
6:00 PM79 °FSunny.9 mph30%30.01 "Hg10 mi
5:00 PM79 °FSunny.10 mph30%30.01 "Hg10 mi
4:00 PM79 °FSunny.14 mph30%30.04 "Hg10 mi
3:00 PM77 °FSunny.14 mph34%30.07 "Hg10 mi
2:00 PM75 °FSunny.17 mph34%30.07 "Hg10 mi
1:00 PM73 °FSunny.15 mph38%30.07 "Hg10 mi
12:00 PM72 °FSunny.16 mph44%30.09 "Hg10 mi
11:00 AM66 °FSunny.13 mph56%30.09 "Hg10 mi
10:00 AM61 °FSunny.14 mph68%30.09 "Hg10 mi
9:00 AM55 °FSunny.12 mph82%30.09 "Hg10 mi
8:00 AM52 °FClear.6 mph88%30.09 "HgN/A
7:00 AM46 °FClear.3 mph87%30.09 "Hg5 mi
6:00 AM43 °FClear.3 mph93%30.09 "Hg4 mi
Weather by CustomWeather, © 2015

See weather overviewHow to use our weather pages